Location: ??????????
(54.8537°N, 38.8755°E)
Time: 22:06:09
(UTC+00:00)

Transit 2A Rocket - Pass Details

Date: 15 September 2024
Orbit: 582 x 908 km, 66.7° (Epoch: 09 October)

Event Time Altitude Azimuth Distance (km) Brightness Sun altitude
Exits shadow 01:18:13 - 294° (WNW) 3,096 7.8 -14.4°
Reaches altitude 10° 01:19:49 10° 302° (WNW) 2,603 7.4 -14.2°
Maximum altitude 01:24:53 27° 359° (N) 1,683 7.0 -13.6°
Drops below altitude 10° 01:29:50 10° 55° (NE) 2,535 9.1 -12.9°
Sets 01:32:42 0° 68° (ENE) 3,432 10.5 -12.6°
